Location: Akgöl Batakl???
(38.9482°N, 31.8837°E)
Time: 11:45:52
(UTC+00:00)

Helios 1A Rocket - Pass Details

Date: 08 May 2026
Orbit: 400 x 410 km, 98.3° (Epoch: 6 June)

Event Time Altitude Azimuth Distance (km) Brightness Sun altitude
Rises 17:51:47 0° 14° (NNE) 2,345 6.3 -11.1°
Reaches altitude 10° 17:53:47 10° 15° (NNE) 1,475 5.2 -11.4°
Maximum altitude 17:56:55 79° 102° (ESE) 417 2.1 -12.0°
Drops below altitude 10° 18:00:01 10° 190° (S) 1,451 4.7 -12.5°
Enters shadow 18:01:55 - 192° (SSW) 2,276 5.7 -12.8°
